Weather in Krestyakh

Russia / Sakha (Yakutia) Republic     62°15′24″N   116°09′57″E
temp.,
°C
wind,
m/s
gust,
m/s
humid.,
%
clouds,
%
prec.,
mm/h
press.,
hPa
HPBL,
m
22 may, sun
sun2200:00+10se227596 0.3 100614
03:00+8ese238464 0.3 100545
06:00+9ese128192 0.0 100568
09:00+11e2374100 0.0 1005173
12:00+15e345476 0.0 1004723
15:00+18e223984 0.1 10032371
18:00+15ne3658100 0.0 1004343
21:00+13e256690 0.0 1006141
23 may, mon
mon2300:00+9ene227886 0.0 100742
03:00+7ne118593 0.0 100910
06:00+8nne1279100 0.0 101048
09:00+13e125848 0.0 1011397
12:00+18e113960 0.0 10111764
15:00+18nw1339100 0.0 10111883
18:00+16w2649100 0.0 1011440
21:00+14w3763100 0.0 1012201
24 may, tue
tue2400:00+12sw2969100 0.0 1012203
03:00+13wsw41362100 0.0 1011391
06:00+13w41161100 0.0 1012515
09:00+16wnw4954100 0.0 10121003
12:00+20wnw51242100 0.0 10111812
15:00+23w7123013 0.0 10093307
18:00+22wsw61334100 0.0 10073078
21:00+15wsw7147093 0.9 10081417
25 may, wed
wed2500:00+12wnw7165062 0.6 10101428
03:00+10wsw61554100 0.6 10081175
06:00+8wnw61069100 0.0 10111071
09:00+8nw5875100 0.1 10141216
12:00+8nw4662100 0.1 10151274
15:00+13wnw2637100 0.1 10142262
18:00+14nw3533100 0.0 10132301
21:00+10ene2354100 0.0 101256
26 may, thu
thu2600:00+7se116299 0.0 101211
03:00+5ene117068 0.0 101111
06:00+5ne3777100 0.0 1010239
09:00+8ene4758100 0.0 1010737
12:00+11ne454684 0.0 10081534
15:00+11ne4539100 0.0 10082016
18:00+12ne5639100 0.0 10081990
21:00+7ne695760 0.0 10101043